Location: Berlin
(38.3226°N, 75.2177°W)
Time: 18:19:42
(UTC+00:00)

Cosmos 968 Rocket - Pass Details

Date: 26 October 2020
Orbit: 741 x 770 km, 74.0° (Epoch: 03 December)

Event Time Altitude Azimuth Distance (km) Brightness Sun altitude
Rises 00:19:57 0° 338° (NNW) 3,233 7.1 -26.3°
Reaches altitude 10° 00:22:20 10° 336° (NNW) 2,299 6.3 -26.8°
Maximum altitude 00:27:31 68° 255° (WSW) 813 3.7 -27.8°
Enters shadow 00:28:14 60° 208° (SSW) 864 3.7 -27.9°
